Terug naar catalogus

SNAP-3 ALICE

ActiefWetenschapVLEO
NORAD 40970·PAYLOAD·🇺🇸 United States

Gelanceerd Oct 8, 2015 vanaf Vandenberg Space Force Base

Loading…

Volgende Passages (komende 24 uur)

TLE

VersSource: Space-Track

Epoch: Sep 14, 2026, 03:03 UTC

1 40970U 15058G   26257.12737793  .01319047  10305-2  19284-2 0  9992
2 40970  64.7343 150.0118 0015537 267.0802  92.8587 16.04805119130885

Volg SNAP-3 ALICE in realtime met AllMySat

Download on the App Store